Time,TemperatureF,DewpointF,PressureIn,WindDirection,WindDirectionDegrees,WindSpeedMPH,WindSpeedGustMPH,Humidity,HourlyPrecipIn,Conditions,Clouds,dailyrainin,SoftwareType,DateUTC
2013-09-10 00:01:00,63.7,63.1,30.00,SE,124,0.0,0.0,98,0.00,,,0.00,Wunderground v.1.15,2013-09-10 04:01:00,
2013-09-10 00:03:00,63.7,63.1,30.00,ESE,123,0.0,0.0,98,0.00,,,0.00,Wunderground v.1.15,2013-09-10 04:03:00,
2013-09-10 00:05:00,63.7,63.1,30.00,ESE,123,0.0,0.0,98,0.00,,,0.00,Wunderground v.1.15,2013-09-10 04:05:00,
2013-09-10 00:10:00,63.9,63.3,29.99,ESE,123,0.0,0.0,98,0.00,,,0.00,Wunderground v.1.15,2013-09-10 04:10:00,
2013-09-10 00:11:00,63.9,63.3,29.99,SE,124,0.0,0.0,98,0.00,,,0.00,Wunderground v.1.15,2013-09-10 04:11:00,
2013-09-10 00:17:00,64.1,63.8,29.99,East,98,0.0,0.0,99,0.00,,,0.00,Wunderground v.1.15,2013-09-10 04:17:00,
2013-09-10 00:22:00,64.5,64.2,29.99,East,96,0.0,1.0,99,0.00,,,0.00,Wunderground v.1.15,2013-09-10 04:22:00,
2013-09-10 00:27:00,64.6,64.3,29.99,East,94,0.0,1.0,99,0.00,,,0.00,Wunderground v.1.15,2013-09-10 04:27:00,
2013-09-10 00:32:00,64.9,64.6,29.99,SSW,196,0.0,0.0,99,0.00,,,0.00,Wunderground v.1.15,2013-09-10 04:32:00,
2013-09-10 00:36:00,65.0,64.7,29.98,ESE,108,0.0,0.0,99,0.00,,,0.00,Wunderground v.1.15,2013-09-10 04:36:00,
2013-09-10 00:41:00,65.1,64.8,29.98,ESE,103,0.0,0.0,99,0.00,,,0.00,Wunderground v.1.15,2013-09-10 04:41:00,
2013-09-10 00:47:00,65.3,65.0,29.98,SSE,150,0.0,3.0,99,0.00,,,0.00,Wunderground v.1.15,2013-09-10 04:47:00,
2013-09-10 00:52:00,65.4,65.1,29.98,SE,134,0.0,0.0,99,0.00,,,0.00,Wunderground v.1.15,2013-09-10 04:52:00,
2013-09-10 00:57:00,65.5,65.2,29.98,North,349,0.0,1.0,99,0.00,,,0.00,Wunderground v.1.15,2013-09-10 04:57:00,
2013-09-10 01:02:00,65.6,65.3,29.98,NNW,348,0.0,0.0,99,0.00,,,0.00,Wunderground v.1.15,2013-09-10 05:02:00,
2013-09-10 01:08:00,65.6,65.3,29.98,WSW,242,0.0,1.0,99,0.00,,,0.00,Wunderground v.1.15,2013-09-10 05:08:00,
2013-09-10 01:13:00,65.9,65.6,29.98,SSW,199,0.0,1.0,99,0.00,,,0.00,Wunderground v.1.15,2013-09-10 05:13:00,
2013-09-10 01:19:00,66.0,65.7,29.98,SW,225,0.0,1.0,99,0.00,,,0.00,Wunderground v.1.15,2013-09-10 05:19:00,
2013-09-10 01:24:00,66.2,65.9,29.98,SW,218,0.0,1.0,99,0.00,,,0.00,Wunderground v.1.15,2013-09-10 05:24:00,
2013-09-10 01:29:00,66.3,66.0,29.98,WSW,246,0.0,1.0,99,0.00,,,0.00,Wunderground v.1.15,2013-09-10 05:29:00,
2013-09-10 01:34:00,66.4,66.1,29.97,SSW,212,0.0,2.0,99,0.00,,,0.00,Wunderground v.1.15,2013-09-10 05:34:00,
2013-09-10 01:39:00,66.4,66.1,29.97,SW,222,0.0,2.0,99,0.00,,,0.00,Wunderground v.1.15,2013-09-10 05:39:00,
2013-09-10 01:45:00,66.6,66.3,29.97,WNW,293,0.0,0.0,99,0.00,,,0.00,Wunderground v.1.15,2013-09-10 05:45:00,
2013-09-10 01:50:00,66.6,66.3,29.97,ESE,109,0.0,0.0,99,0.00,,,0.00,Wunderground v.1.15,2013-09-10 05:50:00,
2013-09-10 01:55:00,66.7,66.4,29.97,ESE,110,0.0,0.0,99,0.00,,,0.00,Wunderground v.1.15,2013-09-10 05:55:00,
2013-09-10 02:01:00,66.7,66.4,29.97,East,82,0.0,0.0,99,0.00,,,0.00,Wunderground v.1.15,2013-09-10 06:01:00,
2013-09-10 02:06:00,66.8,66.5,29.97,East,98,0.0,0.0,99,0.00,,,0.00,Wunderground v.1.15,2013-09-10 06:06:00,
2013-09-10 02:11:00,66.7,66.4,29.97,SE,127,0.0,0.0,99,0.00,,,0.00,Wunderground v.1.15,2013-09-10 06:11:00,
2013-09-10 02:16:00,66.8,66.5,29.97,SE,127,0.0,0.0,99,0.00,,,0.00,Wunderground v.1.15,2013-09-10 06:16:00,
2013-09-10 02:21:00,66.9,66.6,29.97,SE,127,0.0,0.0,99,0.00,,,0.00,Wunderground v.1.15,2013-09-10 06:21:00,
2013-09-10 02:27:00,67.1,66.8,29.97,SSW,208,0.0,0.0,99,0.00,,,0.00,Wunderground v.1.15,2013-09-10 06:27:00,
2013-09-10 02:32:00,67.2,66.9,29.97,South,172,0.0,0.0,99,0.00,,,0.00,Wunderground v.1.15,2013-09-10 06:32:00,
2013-09-10 02:37:00,67.3,67.0,29.97,SW,214,0.0,0.0,99,0.00,,,0.00,Wunderground v.1.15,2013-09-10 06:37:00,
2013-09-10 02:42:00,67.5,67.2,29.97,SSE,155,0.0,1.0,99,0.00,,,0.00,Wunderground v.1.15,2013-09-10 06:42:00,
2013-09-10 02:48:00,67.6,67.3,29.97,SSE,150,0.0,1.0,99,0.00,,,0.00,Wunderground v.1.15,2013-09-10 06:48:00,
2013-09-10 02:53:00,67.6,67.3,29.97,WNW,295,0.0,0.0,99,0.00,,,0.00,Wunderground v.1.15,2013-09-10 06:53:00,
2013-09-10 02:59:00,67.6,67.3,29.97,WNW,295,0.0,0.0,99,0.00,,,0.00,Wunderground v.1.15,2013-09-10 06:59:00,
2013-09-10 03:04:00,67.5,66.9,29.97,South,185,0.0,0.0,98,0.00,,,0.00,Wunderground v.1.15,2013-09-10 07:04:00,
2013-09-10 03:09:00,67.5,66.9,29.97,ESE,121,0.0,0.0,98,0.00,,,0.00,Wunderground v.1.15,2013-09-10 07:09:00,
2013-09-10 03:14:00,67.4,66.8,29.97,SE,124,0.0,0.0,98,0.00,,,0.00,Wunderground v.1.15,2013-09-10 07:14:00,
2013-09-10 03:20:00,67.4,66.8,29.97,SE,131,0.0,0.0,98,0.00,,,0.00,Wunderground v.1.15,2013-09-10 07:20:00,
2013-09-10 03:25:00,67.5,66.9,29.98,SW,219,0.0,0.0,98,0.00,,,0.00,Wunderground v.1.15,2013-09-10 07:25:00,
2013-09-10 03:30:00,67.6,67.3,29.98,SSW,203,0.0,0.0,99,0.00,,,0.00,Wunderground v.1.15,2013-09-10 07:30:00,
2013-09-10 03:35:00,67.5,66.9,29.97,SW,226,0.0,1.0,98,0.00,,,0.00,Wunderground v.1.15,2013-09-10 07:35:00,
2013-09-10 03:40:00,67.5,67.2,29.97,SW,226,0.0,0.0,99,0.00,,,0.00,Wunderground v.1.15,2013-09-10 07:40:00,
2013-09-10 03:46:00,67.5,66.9,29.98,SW,225,0.0,0.0,98,0.00,,,0.00,Wunderground v.1.15,2013-09-10 07:46:00,
2013-09-10 03:51:00,67.5,66.9,29.97,SSE,165,0.0,0.0,98,0.00,,,0.00,Wunderground v.1.15,2013-09-10 07:51:00,
2013-09-10 03:56:00,67.6,67.3,29.97,ESE,105,0.0,0.0,99,0.00,,,0.00,Wunderground v.1.15,2013-09-10 07:56:00,
2013-09-10 04:01:00,67.6,67.0,29.97,South,174,0.0,0.0,98,0.00,,,0.00,Wunderground v.1.15,2013-09-10 08:01:00,
2013-09-10 04:06:00,67.7,67.1,29.98,North,7,0.0,0.0,98,0.00,,,0.00,Wunderground v.1.15,2013-09-10 08:06:00,
2013-09-10 04:12:00,67.7,67.1,29.98,ESE,105,0.0,0.0,98,0.00,,,0.00,Wunderground v.1.15,2013-09-10 08:12:00,
2013-09-10 04:18:00,67.8,67.5,29.98,ENE,61,0.0,0.0,99,0.00,,,0.00,Wunderground v.1.15,2013-09-10 08:18:00,
2013-09-10 04:23:00,67.8,67.2,29.98,SSE,153,0.0,0.0,98,0.00,,,0.00,Wunderground v.1.15,2013-09-10 08:23:00,
2013-09-10 04:28:00,67.9,67.6,29.98,SW,236,0.0,0.0,99,0.00,,,0.00,Wunderground v.1.15,2013-09-10 08:28:00,
2013-09-10 04:33:00,67.9,67.3,29.98,SW,216,0.0,0.0,98,0.00,,,0.00,Wunderground v.1.15,2013-09-10 08:33:00,
2013-09-10 04:39:00,67.9,67.3,29.97,SW,236,0.0,1.0,98,0.00,,,0.00,Wunderground v.1.15,2013-09-10 08:39:00,
2013-09-10 04:44:00,68.0,67.4,29.97,SSW,212,0.0,1.0,98,0.00,,,0.00,Wunderground v.1.15,2013-09-10 08:44:00,
2013-09-10 04:49:00,68.1,67.8,29.98,SSW,208,0.0,1.0,99,0.00,,,0.00,Wunderground v.1.15,2013-09-10 08:49:00,
2013-09-10 04:54:00,68.2,67.6,29.98,SSW,197,0.0,1.0,98,0.00,,,0.00,Wunderground v.1.15,2013-09-10 08:54:00,
2013-09-10 04:59:00,68.2,67.6,29.98,SE,129,0.0,1.0,98,0.00,,,0.00,Wunderground v.1.15,2013-09-10 08:59:00,
2013-09-10 05:04:00,68.3,67.7,29.98,SW,217,0.0,1.0,98,0.00,,,0.00,Wunderground v.1.15,2013-09-10 09:04:00,
2013-09-10 05:09:00,68.3,67.7,29.97,NE,41,0.0,1.0,98,0.00,,,0.00,Wunderground v.1.15,2013-09-10 09:09:00,
2013-09-10 05:15:00,68.4,67.8,29.98,SW,224,0.0,2.0,98,0.00,,,0.00,Wunderground v.1.15,2013-09-10 09:15:00,
2013-09-10 05:20:00,68.6,68.0,29.98,ESE,114,0.0,0.0,98,0.00,,,0.00,Wunderground v.1.15,2013-09-10 09:20:00,
2013-09-10 05:25:00,68.7,68.1,29.98,SW,217,1.0,1.0,98,0.00,,,0.00,Wunderground v.1.15,2013-09-10 09:25:00,
2013-09-10 05:30:00,68.7,67.8,29.98,SSW,203,0.0,0.0,97,0.00,,,0.00,Wunderground v.1.15,2013-09-10 09:30:00,
2013-09-10 05:35:00,68.7,67.8,29.98,West,275,0.0,1.0,97,0.00,,,0.00,Wunderground v.1.15,2013-09-10 09:35:00,
2013-09-10 05:41:00,68.7,67.8,29.97,ESE,117,0.0,0.0,97,0.00,,,0.00,Wunderground v.1.15,2013-09-10 09:41:00,
2013-09-10 05:46:00,68.7,67.8,29.98,SSW,210,0.0,1.0,97,0.00,,,0.00,Wunderground v.1.15,2013-09-10 09:46:00,
2013-09-10 05:51:00,68.8,67.9,29.98,SSW,212,0.0,0.0,97,0.00,,,0.00,Wunderground v.1.15,2013-09-10 09:51:00,
2013-09-10 05:56:00,68.9,68.0,29.98,SW,229,0.0,0.0,97,0.00,,,0.00,Wunderground v.1.15,2013-09-10 09:56:00,
2013-09-10 06:01:00,69.0,68.1,29.98,South,171,0.0,0.0,97,0.00,,,0.00,Wunderground v.1.15,2013-09-10 10:01:00,
2013-09-10 06:06:00,69.1,68.2,29.98,WSW,256,0.0,0.0,97,0.00,,,0.00,Wunderground v.1.15,2013-09-10 10:06:00,
2013-09-10 06:11:00,69.2,68.3,29.98,SW,233,0.0,0.0,97,0.00,,,0.00,Wunderground v.1.15,2013-09-10 10:11:00,
2013-09-10 06:17:00,69.4,68.2,29.98,East,94,0.0,1.0,96,0.00,,,0.00,Wunderground v.1.15,2013-09-10 10:17:00,
2013-09-10 06:22:00,69.5,68.3,29.98,WSW,243,0.0,0.0,96,0.00,,,0.00,Wunderground v.1.15,2013-09-10 10:22:00,
2013-09-10 06:27:00,69.6,68.4,29.98,NE,41,0.0,2.0,96,0.00,,,0.00,Wunderground v.1.15,2013-09-10 10:27:00,
2013-09-10 06:32:00,69.5,68.3,29.98,NE,42,0.0,1.0,96,0.00,,,0.00,Wunderground v.1.15,2013-09-10 10:32:00,
2013-09-10 06:37:00,69.6,68.4,29.98,ENE,69,0.0,1.0,96,0.00,,,0.00,Wunderground v.1.15,2013-09-10 10:37:00,
2013-09-10 06:43:00,69.6,68.1,29.98,SW,229,0.0,1.0,95,0.00,,,0.00,Wunderground v.1.15,2013-09-10 10:43:00,
2013-09-10 06:49:00,69.7,68.2,29.98,SW,222,0.0,1.0,95,0.00,,,0.00,Wunderground v.1.15,2013-09-10 10:49:00,
2013-09-10 06:54:00,69.8,68.3,29.99,NNW,335,0.0,2.0,95,0.00,,,0.00,Wunderground v.1.15,2013-09-10 10:54:00,
2013-09-10 07:00:00,69.9,68.4,29.99,ESE,118,0.0,0.0,95,0.00,,,0.00,Wunderground v.1.15,2013-09-10 11:00:00,
2013-09-10 07:05:00,69.9,68.4,29.99,SW,215,0.0,1.0,95,0.00,,,0.00,Wunderground v.1.15,2013-09-10 11:05:00,
2013-09-10 07:10:00,70.0,68.5,29.99,SW,215,0.0,0.0,95,0.00,,,0.00,Wunderground v.1.15,2013-09-10 11:10:00,
2013-09-10 07:15:00,69.9,68.1,29.99,West,273,0.0,1.0,94,0.00,,,0.00,Wunderground v.1.15,2013-09-10 11:15:00,
2013-09-10 07:20:00,70.0,68.5,29.99,ENE,73,1.0,1.0,95,0.00,,,0.00,Wunderground v.1.15,2013-09-10 11:20:00,
2013-09-10 07:25:00,70.0,68.5,29.99,WSW,238,0.0,1.0,95,0.00,,,0.00,Wunderground v.1.15,2013-09-10 11:25:00,
2013-09-10 07:30:00,70.0,68.2,29.99,East,87,0.0,0.0,94,0.00,,,0.00,Wunderground v.1.15,2013-09-10 11:30:00,
2013-09-10 07:36:00,69.8,68.3,30.00,East,89,0.0,0.0,95,0.00,,,0.00,Wunderground v.1.15,2013-09-10 11:36:00,
2013-09-10 07:41:00,69.8,68.3,30.00,East,89,0.0,0.0,95,0.00,,,0.00,Wunderground v.1.15,2013-09-10 11:41:00,
2013-09-10 07:46:00,69.7,68.2,30.00,East,89,0.0,0.0,95,0.00,,,0.00,Wunderground v.1.15,2013-09-10 11:46:00,
2013-09-10 07:51:00,69.7,68.5,30.00,East,89,0.0,0.0,96,0.00,,,0.00,Wunderground v.1.15,2013-09-10 11:51:00,
2013-09-10 07:56:00,69.7,68.5,29.99,East,89,0.0,1.0,96,0.00,,,0.00,Wunderground v.1.15,2013-09-10 11:56:00,
2013-09-10 08:01:00,69.7,68.5,30.00,East,90,0.0,0.0,96,0.00,,,0.00,Wunderground v.1.15,2013-09-10 12:01:00,
2013-09-10 08:07:00,69.9,68.7,30.00,East,91,0.0,1.0,96,0.00,,,0.00,Wunderground v.1.15,2013-09-10 12:07:00,
2013-09-10 08:12:00,70.0,68.8,30.00,East,89,0.0,0.0,96,0.00,,,0.00,Wunderground v.1.15,2013-09-10 12:12:00,
2013-09-10 08:17:00,70.2,69.0,30.00,SW,218,0.0,0.0,96,0.00,,,0.00,Wunderground v.1.15,2013-09-10 12:17:00,
2013-09-10 08:22:00,70.3,69.1,30.00,WSW,250,0.0,0.0,96,0.00,,,0.00,Wunderground v.1.15,2013-09-10 12:22:00,
2013-09-10 08:27:00,70.5,69.3,29.99,SE,124,0.0,1.0,96,0.00,,,0.00,Wunderground v.1.15,2013-09-10 12:27:00,
2013-09-10 08:33:00,70.7,69.5,30.00,South,174,0.0,0.0,96,0.00,,,0.00,Wunderground v.1.15,2013-09-10 12:33:00,
2013-09-10 08:38:00,71.1,69.6,30.00,SSW,207,0.0,0.0,95,0.00,,,0.00,Wunderground v.1.15,2013-09-10 12:38:00,
2013-09-10 08:43:00,71.5,70.0,29.99,SE,141,0.0,1.0,95,0.00,,,0.00,Wunderground v.1.15,2013-09-10 12:43:00,
2013-09-10 08:48:00,71.9,70.1,29.99,WSW,243,0.0,2.0,94,0.00,,,0.00,Wunderground v.1.15,2013-09-10 12:48:00,
2013-09-10 08:53:00,72.4,70.3,29.99,East,88,1.0,5.0,93,0.00,,,0.00,Wunderground v.1.15,2013-09-10 12:53:00,
2013-09-10 08:59:00,73.0,70.5,29.99,SE,145,1.0,5.0,92,0.00,,,0.00,Wunderground v.1.15,2013-09-10 12:59:00,
2013-09-10 09:04:00,73.3,70.5,29.99,SSW,207,1.0,2.0,91,0.00,,,0.00,Wunderground v.1.15,2013-09-10 13:04:00,
2013-09-10 09:09:00,73.5,70.7,29.99,SW,222,1.0,2.0,91,0.00,,,0.00,Wunderground v.1.15,2013-09-10 13:09:00,
2013-09-10 09:14:00,73.6,70.8,30.00,SW,214,1.0,2.0,91,0.00,,,0.00,Wunderground v.1.15,2013-09-10 13:14:00,
2013-09-10 09:19:00,74.0,71.2,30.00,SE,129,1.0,2.0,91,0.00,,,0.00,Wunderground v.1.15,2013-09-10 13:19:00,
2013-09-10 09:24:00,74.5,71.4,30.00,SW,221,0.0,1.0,90,0.00,,,0.00,Wunderground v.1.15,2013-09-10 13:24:00,
2013-09-10 09:30:00,75.1,71.6,30.00,SSW,211,0.0,0.0,89,0.00,,,0.00,Wunderground v.1.15,2013-09-10 13:30:00,
2013-09-10 09:35:00,75.5,71.7,30.00,SW,218,0.0,3.0,88,0.00,,,0.00,Wunderground v.1.15,2013-09-10 13:35:00,
2013-09-10 09:40:00,75.9,71.8,30.00,SW,214,1.0,1.0,87,0.00,,,0.00,Wunderground v.1.15,2013-09-10 13:40:00,
2013-09-10 09:45:00,76.3,72.1,30.00,WSW,243,1.0,1.0,87,0.00,,,0.00,Wunderground v.1.15,2013-09-10 13:45:00,
2013-09-10 09:50:00,76.8,72.3,30.00,SW,224,1.0,1.0,86,0.00,,,0.00,Wunderground v.1.15,2013-09-10 13:50:00,
2013-09-10 09:55:00,77.4,72.5,30.00,NNE,32,0.0,1.0,85,0.00,,,0.00,Wunderground v.1.15,2013-09-10 13:55:00,
2013-09-10 10:00:00,77.7,72.5,30.00,WSW,246,1.0,3.0,84,0.00,,,0.00,Wunderground v.1.15,2013-09-10 14:00:00,
2013-09-10 10:06:00,77.7,72.5,30.00,SW,232,2.0,3.0,84,0.00,,,0.00,Wunderground v.1.15,2013-09-10 14:06:00,
2013-09-10 10:11:00,77.9,73.0,30.00,ENE,75,1.0,2.0,85,0.00,,,0.00,Wunderground v.1.15,2013-09-10 14:11:00,
2013-09-10 10:16:00,78.5,73.3,30.00,West,261,1.0,2.0,84,0.00,,,0.00,Wunderground v.1.15,2013-09-10 14:16:00,
2013-09-10 10:21:00,79.0,73.4,30.00,West,263,1.0,1.0,83,0.00,,,0.00,Wunderground v.1.15,2013-09-10 14:21:00,
2013-09-10 10:27:00,79.5,73.5,30.00,ENE,61,1.0,3.0,82,0.00,,,0.00,Wunderground v.1.15,2013-09-10 14:27:00,
2013-09-10 10:32:00,79.8,73.4,30.00,WSW,238,1.0,2.0,81,0.00,,,0.00,Wunderground v.1.15,2013-09-10 14:32:00,
2013-09-10 10:37:00,80.3,74.3,30.00,WSW,250,1.0,4.0,82,0.00,,,0.00,Wunderground v.1.15,2013-09-10 14:37:00,
2013-09-10 10:42:00,80.7,74.3,30.00,ESE,113,0.0,4.0,81,0.00,,,0.00,Wunderground v.1.15,2013-09-10 14:42:00,
2013-09-10 10:48:00,81.0,74.6,30.00,ENE,69,1.0,4.0,81,0.00,,,0.00,Wunderground v.1.15,2013-09-10 14:48:00,
2013-09-10 10:53:00,81.2,74.4,30.00,ESE,121,1.0,2.0,80,0.00,,,0.00,Wunderground v.1.15,2013-09-10 14:53:00,
2013-09-10 10:58:00,82.0,74.8,30.00,SW,229,1.0,2.0,79,0.00,,,0.00,Wunderground v.1.15,2013-09-10 14:58:00,
2013-09-10 11:03:00,82.1,74.6,30.00,ENE,61,1.0,3.0,78,0.00,,,0.00,Wunderground v.1.15,2013-09-10 15:03:00,
2013-09-10 11:09:00,82.4,74.1,30.00,WSW,253,1.0,3.0,76,0.00,,,0.00,Wunderground v.1.15,2013-09-10 15:09:00,
2013-09-10 11:14:00,82.5,74.6,30.00,SE,144,1.0,2.0,77,0.00,,,0.00,Wunderground v.1.15,2013-09-10 15:14:00,
2013-09-10 11:20:00,82.7,74.4,30.00,WSW,239,1.0,2.0,76,0.00,,,0.00,Wunderground v.1.15,2013-09-10 15:20:00,
2013-09-10 11:25:00,83.0,74.6,30.00,SW,232,1.0,2.0,76,0.00,,,0.00,Wunderground v.1.15,2013-09-10 15:25:00,
2013-09-10 11:31:00,83.3,74.9,30.00,East,85,1.0,1.0,76,0.00,,,0.00,Wunderground v.1.15,2013-09-10 15:31:00,
2013-09-10 11:36:00,83.4,74.6,30.00,SW,232,1.0,3.0,75,0.00,,,0.00,Wunderground v.1.15,2013-09-10 15:36:00,
2013-09-10 11:41:00,83.6,75.6,30.00,SW,231,1.0,4.0,77,0.00,,,0.00,Wunderground v.1.15,2013-09-10 15:41:00,
2013-09-10 11:46:00,83.9,75.1,30.00,ENE,64,1.0,4.0,75,0.00,,,0.00,Wunderground v.1.15,2013-09-10 15:46:00,
2013-09-10 11:51:00,83.9,74.7,30.00,SW,218,2.0,2.0,74,0.00,,,0.00,Wunderground v.1.15,2013-09-10 15:51:00,
2013-09-10 11:57:00,84.2,74.6,30.00,East,85,2.0,3.0,73,0.00,,,0.00,Wunderground v.1.15,2013-09-10 15:57:00,
2013-09-10 12:02:00,84.5,75.3,30.00,SW,233,1.0,2.0,74,0.00,,,0.00,Wunderground v.1.15,2013-09-10 16:02:00,
2013-09-10 12:07:00,84.8,75.2,30.00,WSW,242,1.0,4.0,73,0.00,,,0.00,Wunderground v.1.15,2013-09-10 16:07:00,
2013-09-10 12:12:00,85.1,75.5,30.00,SSW,212,1.0,2.0,73,0.00,,,0.00,Wunderground v.1.15,2013-09-10 16:12:00,
2013-09-10 12:17:00,85.1,75.5,29.99,ESE,120,1.0,2.0,73,0.00,,,0.00,Wunderground v.1.15,2013-09-10 16:17:00,
2013-09-10 12:22:00,85.0,75.4,29.99,WSW,250,1.0,2.0,73,0.00,,,0.00,Wunderground v.1.15,2013-09-10 16:22:00,
2013-09-10 12:28:00,85.2,75.6,30.00,NNW,336,2.0,3.0,73,0.00,,,0.00,Wunderground v.1.15,2013-09-10 16:28:00,
2013-09-10 12:33:00,85.4,75.8,30.00,ESE,105,2.0,4.0,73,0.00,,,0.00,Wunderground v.1.15,2013-09-10 16:33:00,
2013-09-10 12:38:00,85.7,75.6,30.00,WSW,255,1.0,4.0,72,0.00,,,0.00,Wunderground v.1.15,2013-09-10 16:38:00,
2013-09-10 12:43:00,86.1,76.0,30.00,WNW,291,1.0,2.0,72,0.00,,,0.00,Wunderground v.1.15,2013-09-10 16:43:00,
2013-09-10 12:48:00,86.4,76.3,30.00,SW,226,1.0,4.0,72,0.00,,,0.00,Wunderground v.1.15,2013-09-10 16:48:00,
2013-09-10 12:53:00,86.5,75.5,29.99,WSW,239,1.0,2.0,70,0.00,,,0.00,Wunderground v.1.15,2013-09-10 16:53:00,
2013-09-10 12:59:00,86.5,76.4,29.99,SW,224,1.0,4.0,72,0.00,,,0.00,Wunderground v.1.15,2013-09-10 16:59:00,
2013-09-10 13:04:00,86.5,75.5,29.99,SW,229,2.0,4.0,70,0.00,,,0.00,Wunderground v.1.15,2013-09-10 17:04:00,
2013-09-10 13:09:00,86.5,76.0,29.99,WSW,252,2.0,4.0,71,0.00,,,0.00,Wunderground v.1.15,2013-09-10 17:09:00,
2013-09-10 13:14:00,86.8,75.4,29.99,WSW,252,2.0,5.0,69,0.00,,,0.00,Wunderground v.1.15,2013-09-10 17:14:00,
2013-09-10 13:19:00,86.7,75.3,29.99,WSW,238,2.0,5.0,69,0.00,,,0.00,Wunderground v.1.15,2013-09-10 17:19:00,
2013-09-10 13:25:00,87.1,76.1,29.99,WSW,239,2.0,2.0,70,0.00,,,0.00,Wunderground v.1.15,2013-09-10 17:25:00,
2013-09-10 13:30:00,87.3,75.4,29.99,WSW,253,1.0,4.0,68,0.00,,,0.00,Wunderground v.1.15,2013-09-10 17:30:00,
2013-09-10 13:35:00,87.2,75.3,29.99,NE,37,2.0,7.0,68,0.00,,,0.00,Wunderground v.1.15,2013-09-10 17:35:00,
2013-09-10 13:40:00,87.4,75.1,29.99,South,186,3.0,3.0,67,0.00,,,0.00,Wunderground v.1.15,2013-09-10 17:40:00,
2013-09-10 13:45:00,87.4,76.0,29.99,WSW,252,2.0,3.0,69,0.00,,,0.00,Wunderground v.1.15,2013-09-10 17:45:00,
2013-09-10 13:50:00,87.6,76.2,29.99,SSW,205,3.0,3.0,69,0.00,,,0.00,Wunderground v.1.15,2013-09-10 17:50:00,
2013-09-10 13:56:00,88.2,75.9,29.99,West,267,2.0,5.0,67,0.00,,,0.00,Wunderground v.1.15,2013-09-10 17:56:00,
2013-09-10 14:02:00,88.5,76.6,29.99,West,263,2.0,2.0,68,0.00,,,0.00,Wunderground v.1.15,2013-09-10 18:02:00,
2013-09-10 14:07:00,88.5,76.1,29.99,ESE,105,2.0,4.0,67,0.00,,,0.00,Wunderground v.1.15,2013-09-10 18:07:00,
2013-09-10 14:12:00,88.6,76.2,29.99,SW,225,2.0,3.0,67,0.00,,,0.00,Wunderground v.1.15,2013-09-10 18:12:00,
2013-09-10 14:17:00,88.5,76.1,29.99,ENE,75,2.0,3.0,67,0.00,,,0.00,Wunderground v.1.15,2013-09-10 18:17:00,
2013-09-10 14:23:00,89.0,77.1,29.99,WSW,238,1.0,1.0,68,0.00,,,0.00,Wunderground v.1.15,2013-09-10 18:23:00,
2013-09-10 14:28:00,89.4,77.0,29.99,WSW,253,1.0,4.0,67,0.00,,,0.00,Wunderground v.1.15,2013-09-10 18:28:00,
2013-09-10 14:33:00,89.5,76.2,29.99,SW,225,2.0,3.0,65,0.00,,,0.00,Wunderground v.1.15,2013-09-10 18:33:00,
2013-09-10 14:38:00,89.7,77.3,29.99,South,186,2.0,4.0,67,0.00,,,0.00,Wunderground v.1.15,2013-09-10 18:38:00,
2013-09-10 14:43:00,89.7,76.4,29.99,SW,235,1.0,3.0,65,0.00,,,0.00,Wunderground v.1.15,2013-09-10 18:43:00,
2013-09-10 14:48:00,89.5,76.2,29.99,SW,221,2.0,5.0,65,0.00,,,0.00,Wunderground v.1.15,2013-09-10 18:48:00,
2013-09-10 14:54:00,89.5,76.6,29.99,East,85,2.0,4.0,66,0.00,,,0.00,Wunderground v.1.15,2013-09-10 18:54:00,
2013-09-10 14:59:00,89.4,76.1,29.99,WSW,249,2.0,5.0,65,0.00,,,0.00,Wunderground v.1.15,2013-09-10 18:59:00,
2013-09-10 15:04:00,89.4,77.0,29.98,WSW,248,2.0,2.0,67,0.00,,,0.00,Wunderground v.1.15,2013-09-10 19:04:00,
2013-09-10 15:10:00,90.0,77.1,29.98,WSW,256,1.0,2.0,66,0.00,,,0.00,Wunderground v.1.15,2013-09-10 19:10:00,
2013-09-10 15:15:00,90.0,77.6,29.98,WSW,252,1.0,6.0,67,0.00,,,0.00,Wunderground v.1.15,2013-09-10 19:15:00,
2013-09-10 15:21:00,90.5,76.7,29.98,SW,215,1.0,5.0,64,0.00,,,0.00,Wunderground v.1.15,2013-09-10 19:21:00,
2013-09-10 15:26:00,90.1,75.8,29.98,WSW,242,2.0,6.0,63,0.00,,,0.00,Wunderground v.1.15,2013-09-10 19:26:00,
2013-09-10 15:31:00,90.0,76.2,29.98,WSW,238,3.0,3.0,64,0.00,,,0.00,Wunderground v.1.15,2013-09-10 19:31:00,
2013-09-10 15:36:00,89.9,76.6,29.98,WSW,256,2.0,3.0,65,0.00,,,0.00,Wunderground v.1.15,2013-09-10 19:36:00,
2013-09-10 15:42:00,89.6,76.3,29.98,WSW,242,2.0,7.0,65,0.00,,,0.00,Wunderground v.1.15,2013-09-10 19:42:00,
2013-09-10 15:47:00,89.8,77.4,29.98,SSW,212,2.0,7.0,67,0.00,,,0.00,Wunderground v.1.15,2013-09-10 19:47:00,
2013-09-10 15:52:00,90.0,76.2,29.97,SW,222,2.0,6.0,64,0.00,,,0.00,Wunderground v.1.15,2013-09-10 19:52:00,
2013-09-10 15:57:00,90.1,76.3,29.97,West,281,2.0,6.0,64,0.00,,,0.00,Wunderground v.1.15,2013-09-10 19:57:00,
2013-09-10 16:02:00,89.9,76.1,29.97,SSW,198,2.0,3.0,64,0.00,,,0.00,Wunderground v.1.15,2013-09-10 20:02:00,
2013-09-10 16:07:00,89.8,76.0,29.97,SW,228,3.0,4.0,64,0.00,,,0.00,Wunderground v.1.15,2013-09-10 20:07:00,
2013-09-10 16:13:00,89.8,76.0,29.97,WSW,238,3.0,4.0,64,0.00,,,0.00,Wunderground v.1.15,2013-09-10 20:13:00,
2013-09-10 16:18:00,89.9,76.6,29.97,SW,226,2.0,4.0,65,0.00,,,0.00,Wunderground v.1.15,2013-09-10 20:18:00,
2013-09-10 16:23:00,90.0,76.2,29.97,SW,228,2.0,4.0,64,0.00,,,0.00,Wunderground v.1.15,2013-09-10 20:23:00,
2013-09-10 16:28:00,89.7,75.4,29.97,WSW,255,2.0,4.0,63,0.00,,,0.00,Wunderground v.1.15,2013-09-10 20:28:00,
2013-09-10 16:34:00,89.7,75.9,29.97,WSW,249,2.0,5.0,64,0.00,,,0.00,Wunderground v.1.15,2013-09-10 20:34:00,
2013-09-10 16:39:00,89.6,75.8,29.97,ESE,108,2.0,5.0,64,0.00,,,0.00,Wunderground v.1.15,2013-09-10 20:39:00,
2013-09-10 16:44:00,89.4,76.1,29.97,WSW,249,2.0,2.0,65,0.00,,,0.00,Wunderground v.1.15,2013-09-10 20:44:00,
2013-09-10 16:49:00,89.3,75.0,29.97,SW,228,1.0,4.0,63,0.00,,,0.00,Wunderground v.1.15,2013-09-10 20:49:00,
2013-09-10 16:54:00,89.1,75.3,29.97,WSW,240,2.0,6.0,64,0.00,,,0.00,Wunderground v.1.15,2013-09-10 20:54:00,
2013-09-10 16:59:00,89.1,75.3,29.97,SW,234,2.0,6.0,64,0.00,,,0.00,Wunderground v.1.15,2013-09-10 20:59:00,
2013-09-10 17:05:00,88.9,75.6,29.97,SW,236,2.0,3.0,65,0.00,,,0.00,Wunderground v.1.15,2013-09-10 21:05:00,
2013-09-10 17:11:00,88.8,76.0,29.97,SW,219,2.0,2.0,66,0.00,,,0.00,Wunderground v.1.15,2013-09-10 21:11:00,
2013-09-10 17:16:00,88.7,75.4,29.97,SW,229,2.0,2.0,65,0.00,,,0.00,Wunderground v.1.15,2013-09-10 21:16:00,
2013-09-10 17:21:00,88.8,76.0,29.97,SW,235,1.0,1.0,66,0.00,,,0.00,Wunderground v.1.15,2013-09-10 21:21:00,
2013-09-10 17:26:00,88.7,75.9,29.97,SW,225,1.0,4.0,66,0.00,,,0.00,Wunderground v.1.15,2013-09-10 21:26:00,
2013-09-10 17:31:00,88.6,75.3,29.97,SSE,147,1.0,2.0,65,0.00,,,0.00,Wunderground v.1.15,2013-09-10 21:31:00,
2013-09-10 17:37:00,88.3,75.5,29.97,WSW,239,1.0,3.0,66,0.00,,,0.00,Wunderground v.1.15,2013-09-10 21:37:00,
2013-09-10 17:42:00,88.2,75.4,29.97,SW,219,1.0,3.0,66,0.00,,,0.00,Wunderground v.1.15,2013-09-10 21:42:00,
2013-09-10 17:47:00,88.2,76.3,29.97,SSE,162,1.0,3.0,68,0.00,,,0.00,Wunderground v.1.15,2013-09-10 21:47:00,
2013-09-10 17:52:00,88.0,75.7,29.97,SW,218,1.0,1.0,67,0.00,,,0.00,Wunderground v.1.15,2013-09-10 21:52:00,
2013-09-10 17:58:00,87.9,75.6,29.97,SW,222,1.0,3.0,67,0.00,,,0.00,Wunderground v.1.15,2013-09-10 21:58:00,
2013-09-10 18:03:00,88.1,76.2,29.97,SW,229,1.0,1.0,68,0.00,,,0.00,Wunderground v.1.15,2013-09-10 22:03:00,
2013-09-10 18:08:00,88.2,75.9,29.97,SSW,207,1.0,1.0,67,0.00,,,0.00,Wunderground v.1.15,2013-09-10 22:08:00,
2013-09-10 18:13:00,87.9,76.5,29.97,SW,217,1.0,3.0,69,0.00,,,0.00,Wunderground v.1.15,2013-09-10 22:13:00,
2013-09-10 18:19:00,87.7,76.3,29.97,SW,223,1.0,3.0,69,0.00,,,0.00,Wunderground v.1.15,2013-09-10 22:19:00,
2013-09-10 18:24:00,87.4,76.4,29.97,SW,231,0.0,2.0,70,0.00,,,0.00,Wunderground v.1.15,2013-09-10 22:24:00,
2013-09-10 18:29:00,87.3,76.3,29.97,SSE,158,1.0,2.0,70,0.00,,,0.00,Wunderground v.1.15,2013-09-10 22:29:00,
2013-09-10 18:34:00,86.9,76.4,29.97,SW,222,0.0,1.0,71,0.00,,,0.00,Wunderground v.1.15,2013-09-10 22:34:00,
2013-09-10 18:39:00,86.8,76.3,29.97,SW,221,0.0,2.0,71,0.00,,,0.00,Wunderground v.1.15,2013-09-10 22:39:00,
2013-09-10 18:45:00,86.7,76.2,29.97,SW,222,0.0,1.0,71,0.00,,,0.00,Wunderground v.1.15,2013-09-10 22:45:00,
2013-09-10 18:50:00,86.4,76.7,29.97,SW,222,0.0,0.0,73,0.00,,,0.00,Wunderground v.1.15,2013-09-10 22:50:00,
2013-09-10 18:55:00,85.9,76.2,29.97,SW,222,0.0,0.0,73,0.00,,,0.00,Wunderground v.1.15,2013-09-10 22:55:00,
2013-09-10 19:00:00,85.4,76.6,29.97,SW,222,0.0,0.0,75,0.00,,,0.00,Wunderground v.1.15,2013-09-10 23:00:00,
2013-09-10 19:06:00,84.8,76.4,29.97,SW,222,0.0,0.0,76,0.00,,,0.00,Wunderground v.1.15,2013-09-10 23:06:00,
2013-09-10 19:11:00,84.3,76.7,29.97,SW,222,0.0,0.0,78,0.00,,,0.00,Wunderground v.1.15,2013-09-10 23:11:00,
2013-09-10 19:16:00,83.8,77.0,29.97,SW,222,0.0,0.0,80,0.00,,,0.00,Wunderground v.1.15,2013-09-10 23:16:00,
2013-09-10 19:21:00,83.3,76.9,29.97,SW,222,0.0,0.0,81,0.00,,,0.00,Wunderground v.1.15,2013-09-10 23:21:00,
2013-09-10 19:27:00,82.7,76.6,29.98,SW,222,0.0,0.0,82,0.00,,,0.00,Wunderground v.1.15,2013-09-10 23:27:00,
2013-09-10 19:32:00,82.1,76.1,29.98,SW,222,0.0,0.0,82,0.00,,,0.00,Wunderground v.1.15,2013-09-10 23:32:00,
2013-09-10 19:37:00,81.5,76.2,29.98,SW,221,0.0,0.0,84,0.00,,,0.00,Wunderground v.1.15,2013-09-10 23:37:00,
2013-09-10 19:42:00,81.0,75.7,29.98,SW,221,0.0,0.0,84,0.00,,,0.00,Wunderground v.1.15,2013-09-10 23:42:00,
2013-09-10 19:47:00,80.4,75.5,29.98,SW,221,0.0,0.0,85,0.00,,,0.00,Wunderground v.1.15,2013-09-10 23:47:00,
2013-09-10 19:53:00,79.7,75.5,29.99,SW,222,0.0,0.0,87,0.00,,,0.00,Wunderground v.1.15,2013-09-10 23:53:00,
2013-09-10 19:59:00,79.2,75.0,29.99,SW,222,0.0,0.0,87,0.00,,,0.00,Wunderground v.1.15,2013-09-10 23:59:00,
2013-09-10 20:04:00,79.0,74.8,29.99,SW,221,0.0,0.0,87,0.00,,,0.00,Wunderground v.1.15,2013-09-11 00:04:00,
2013-09-10 20:10:00,78.8,74.6,30.00,SW,222,0.0,0.0,87,0.00,,,0.00,Wunderground v.1.15,2013-09-11 00:10:00,
2013-09-10 20:15:00,78.6,74.7,30.00,SW,222,0.0,0.0,88,0.00,,,0.00,Wunderground v.1.15,2013-09-11 00:15:00,
2013-09-10 20:20:00,78.4,74.5,30.00,SW,222,0.0,0.0,88,0.00,,,0.00,Wunderground v.1.15,2013-09-11 00:20:00,
2013-09-10 20:25:00,78.1,74.6,30.00,SW,222,0.0,0.0,89,0.00,,,0.00,Wunderground v.1.15,2013-09-11 00:25:00,
2013-09-10 20:30:00,77.9,74.4,30.00,SW,222,0.0,0.0,89,0.00,,,0.00,Wunderground v.1.15,2013-09-11 00:30:00,
2013-09-10 20:36:00,77.7,74.5,30.00,SW,222,0.0,0.0,90,0.00,,,0.00,Wunderground v.1.15,2013-09-11 00:36:00,
2013-09-10 20:41:00,77.5,74.3,30.01,SW,222,0.0,0.0,90,0.00,,,0.00,Wunderground v.1.15,2013-09-11 00:41:00,
2013-09-10 20:47:00,77.2,74.4,30.01,SW,221,0.0,0.0,91,0.00,,,0.00,Wunderground v.1.15,2013-09-11 00:47:00,
2013-09-10 20:52:00,76.9,74.1,30.01,SW,221,0.0,0.0,91,0.00,,,0.00,Wunderground v.1.15,2013-09-11 00:52:00,
2013-09-10 20:58:00,76.5,74.0,30.01,SW,221,0.0,0.0,92,0.00,,,0.00,Wunderground v.1.15,2013-09-11 00:58:00,
2013-09-10 21:03:00,76.2,73.7,30.01,SW,221,0.0,0.0,92,0.00,,,0.00,Wunderground v.1.15,2013-09-11 01:03:00,
2013-09-10 21:08:00,76.0,73.5,30.01,SW,221,0.0,0.0,92,0.00,,,0.00,Wunderground v.1.15,2013-09-11 01:08:00,
2013-09-10 21:13:00,75.9,73.7,30.01,SW,221,0.0,0.0,93,0.00,,,0.00,Wunderground v.1.15,2013-09-11 01:13:00,
2013-09-10 21:18:00,75.7,73.5,30.01,SSE,148,0.0,0.0,93,0.00,,,0.00,Wunderground v.1.15,2013-09-11 01:18:00,
2013-09-10 21:24:00,75.5,73.3,30.01,SSE,148,0.0,0.0,93,0.00,,,0.00,Wunderground v.1.15,2013-09-11 01:24:00,
2013-09-10 21:29:00,75.4,73.6,30.01,SSE,148,0.0,0.0,94,0.00,,,0.00,Wunderground v.1.15,2013-09-11 01:29:00,
2013-09-10 21:34:00,75.2,73.4,30.01,SSE,148,0.0,0.0,94,0.00,,,0.00,Wunderground v.1.15,2013-09-11 01:34:00,
2013-09-10 21:40:00,75.2,73.4,30.02,SSE,148,0.0,0.0,94,0.00,,,0.00,Wunderground v.1.15,2013-09-11 01:40:00,
2013-09-10 21:45:00,75.2,73.7,30.02,SSE,148,0.0,0.0,95,0.00,,,0.00,Wunderground v.1.15,2013-09-11 01:45:00,
2013-09-10 21:50:00,75.2,73.7,30.02,SSE,148,0.0,0.0,95,0.00,,,0.00,Wunderground v.1.15,2013-09-11 01:50:00,
2013-09-10 21:55:00,75.1,73.3,30.02,SSE,148,0.0,0.0,94,0.00,,,0.00,Wunderground v.1.15,2013-09-11 01:55:00,
2013-09-10 22:01:00,74.9,73.4,30.03,SSE,148,0.0,0.0,95,0.00,,,0.00,Wunderground v.1.15,2013-09-11 02:01:00,
2013-09-10 22:06:00,74.8,73.3,30.03,SSE,148,0.0,0.0,95,0.00,,,0.00,Wunderground v.1.15,2013-09-11 02:06:00,
2013-09-10 22:11:00,74.7,73.2,30.03,SSE,148,0.0,0.0,95,0.00,,,0.00,Wunderground v.1.15,2013-09-11 02:11:00,
2013-09-10 22:17:00,74.6,73.1,30.03,SSE,148,0.0,0.0,95,0.00,,,0.00,Wunderground v.1.15,2013-09-11 02:17:00,
2013-09-10 22:22:00,74.5,73.0,30.03,SSE,150,0.0,0.0,95,0.00,,,0.00,Wunderground v.1.15,2013-09-11 02:22:00,
2013-09-10 22:27:00,74.4,72.9,30.03,SSE,150,0.0,0.0,95,0.00,,,0.00,Wunderground v.1.15,2013-09-11 02:27:00,
2013-09-10 22:32:00,74.5,73.0,30.03,SW,214,0.0,0.0,95,0.00,,,0.00,Wunderground v.1.15,2013-09-11 02:32:00,
2013-09-10 22:37:00,74.5,73.0,30.03,SW,214,0.0,0.0,95,0.00,,,0.00,Wunderground v.1.15,2013-09-11 02:37:00,
2013-09-10 22:43:00,74.5,73.0,30.03,SW,221,0.0,0.0,95,0.00,,,0.00,Wunderground v.1.15,2013-09-11 02:43:00,
2013-09-10 22:48:00,74.7,73.5,30.03,SW,228,0.0,1.0,96,0.00,,,0.00,Wunderground v.1.15,2013-09-11 02:48:00,
2013-09-10 22:53:00,75.0,73.5,30.03,SSW,208,0.0,0.0,95,0.00,,,0.00,Wunderground v.1.15,2013-09-11 02:53:00,
2013-09-10 22:59:00,75.1,73.3,30.03,SSW,197,0.0,0.0,94,0.00,,,0.00,Wunderground v.1.15,2013-09-11 02:59:00,
2013-09-10 23:04:00,75.3,73.5,30.03,SSW,199,0.0,0.0,94,0.00,,,0.00,Wunderground v.1.15,2013-09-11 03:04:00,
2013-09-10 23:09:00,75.5,73.3,30.03,SW,229,0.0,1.0,93,0.00,,,0.00,Wunderground v.1.15,2013-09-11 03:09:00,
2013-09-10 23:15:00,75.7,73.5,30.03,SSE,153,0.0,0.0,93,0.00,,,0.00,Wunderground v.1.15,2013-09-11 03:15:00,
2013-09-10 23:20:00,75.8,73.6,30.03,ENE,61,0.0,0.0,93,0.00,,,0.00,Wunderground v.1.15,2013-09-11 03:20:00,
2013-09-10 23:25:00,75.9,73.4,30.03,ENE,63,0.0,0.0,92,0.00,,,0.00,Wunderground v.1.15,2013-09-11 03:25:00,
2013-09-10 23:30:00,75.9,73.4,30.03,ENE,62,0.0,0.0,92,0.00,,,0.00,Wunderground v.1.15,2013-09-11 03:30:00,
2013-09-10 23:36:00,75.9,73.4,30.03,SW,221,0.0,1.0,92,0.00,,,0.00,Wunderground v.1.15,2013-09-11 03:36:00,
2013-09-10 23:41:00,75.8,73.3,30.03,SW,222,0.0,0.0,92,0.00,,,0.00,Wunderground v.1.15,2013-09-11 03:41:00,
2013-09-10 23:46:00,75.8,73.3,30.02,SW,222,0.0,0.0,92,0.00,,,0.00,Wunderground v.1.15,2013-09-11 03:46:00,
2013-09-10 23:52:00,75.7,73.2,30.02,SSE,153,0.0,0.0,92,0.00,,,0.00,Wunderground v.1.15,2013-09-11 03:52:00,
2013-09-10 23:57:00,75.7,73.5,30.02,SW,229,0.0,0.0,93,0.00,,,0.00,Wunderground v.1.15,2013-09-11 03:57:00,